When you browse on this site, cookies collect data to enhance your experience and personalize the content and advertising you see.
Visit our Privacy Policy to learn more. By continuing to use the site, you agree to this use of cookies and data.
  • In Portugal
  • List of Countries
  • For 7 days
  • Water Temperature
  • Weather Map
  • Weather Widgets
  • user-avatar
    Login

    Hourly Weather Tskhaltubo

    Today, 30 May, Saturday

    Time Temperature Precipitation Wind Pressure Humidity
    00:00 +16°C° 0.1 mm 2 mps 743 mmHg 96%
    01:00 +16°C° 0.1 mm 2 mps 743 mmHg 96%
    02:00 +16°C° 0.1 mm 1 mps 743 mmHg 97%
    03:00 +16°C° 0 mm 1 mps 743 mmHg 96%
    04:00 +16°C° 0 mm 1 mps 743 mmHg 96%
    05:00 +16°C° 0 mm 1 mps 743 mmHg 96%
    06:00 +16°C° 0 mm 1 mps 744 mmHg 96%
    07:00 +16°C° 0 mm 1 mps 744 mmHg 93%
    08:00 +18°C° 0 mm 1 mps 743 mmHg 90%
    09:00 +19°C° 0 mm 1 mps 743 mmHg 87%
    10:00 +21°C° 0 mm 1 mps 743 mmHg 79%
    11:00 +22°C° 0 mm 1 mps 743 mmHg 71%
    12:00 +24°C° 0 mm 2 mps 743 mmHg 63%
    13:00 +25°C° 0 mm 2 mps 743 mmHg 62%
    14:00 +25°C° 0 mm 3 mps 743 mmHg 60%
    15:00 +26°C° 0 mm 4 mps 743 mmHg 59%
    16:00 +23°C° 0 mm 4 mps 743 mmHg 65%
    17:00 +22°C° 0 mm 4 mps 743 mmHg 70%
    18:00 +21°C° 0 mm 4 mps 743 mmHg 76%
    19:00 +19°C° 0 mm 3 mps 744 mmHg 82%
    20:00 +17°C° 0 mm 2 mps 744 mmHg 88%
    21:00 +16°C° 0 mm 1 mps 744 mmHg 94%
    22:00 +15°C° 0 mm 1 mps 745 mmHg 94%
    23:00 +15°C° 0 mm 1 mps 745 mmHg 94%

    Tomorrow, 31 May, Sunday

    Time Temperature Precipitation Wind Pressure Humidity
    00:00 +13°C° 0 mm 0 mps 745 mmHg 94%
    01:00 +14°C° 0 mm 1 mps 745 mmHg 93%
    02:00 +14°C° 0 mm 1 mps 745 mmHg 92%
    03:00 +14°C° 0 mm 1 mps 745 mmHg 91%
    04:00 +14°C° 0 mm 1 mps 745 mmHg 88%
    05:00 +15°C° 0 mm 1 mps 745 mmHg 86%
    06:00 +15°C° 0 mm 1 mps 745 mmHg 83%
    07:00 +19°C° 0 mm 1 mps 745 mmHg 74%
    08:00 +21°C° 0 mm 1 mps 745 mmHg 64%
    09:00 +24°C° 0 mm 1 mps 744 mmHg 55%
    10:00 +25°C° 0 mm 2 mps 744 mmHg 50%
    11:00 +26°C° 0 mm 2 mps 744 mmHg 46%
    12:00 +28°C° 0 mm 2 mps 744 mmHg 41%
    13:00 +28°C° 0 mm 2 mps 743 mmHg 42%
    14:00 +28°C° 0 mm 2 mps 743 mmHg 42%
    15:00 +28°C° 0 mm 3 mps 743 mmHg 43%
    16:00 +27°C° 0 mm 2 mps 743 mmHg 50%
    17:00 +26°C° 0 mm 2 mps 743 mmHg 58%
    18:00 +25°C° 0 mm 2 mps 743 mmHg 65%
    19:00 +23°C° 0 mm 2 mps 743 mmHg 69%
    20:00 +21°C° 0 mm 1 mps 743 mmHg 73%
    21:00 +19°C° 0 mm 1 mps 743 mmHg 77%
    22:00 +19°C° 0 mm 1 mps 743 mmHg 74%
    23:00 +19°C° 0 mm 1 mps 742 mmHg 71%

    Day after tomorrow, 1 June, Monday

    Time Temperature Precipitation Wind Pressure Humidity
    00:00 +19°C° 0 mm 1 mps 742 mmHg 68%
    01:00 +18°C° 0 mm 1 mps 742 mmHg 66%
    02:00 +18°C° 0 mm 1 mps 742 mmHg 64%
    03:00 +18°C° 0 mm 1 mps 741 mmHg 62%
    04:00 +18°C° 0 mm 1 mps 741 mmHg 64%
    05:00 +18°C° 0 mm 1 mps 741 mmHg 65%
    06:00 +19°C° 0 mm 1 mps 741 mmHg 67%
    07:00 +21°C° 0 mm 1 mps 741 mmHg 62%
    08:00 +24°C° 0 mm 2 mps 740 mmHg 57%
    09:00 +26°C° 0 mm 2 mps 740 mmHg 52%
    10:00 +28°C° 0 mm 2 mps 740 mmHg 49%
    11:00 +29°C° 0 mm 2 mps 740 mmHg 46%
    12:00 +31°C° 0 mm 2 mps 740 mmHg 44%
    13:00 +31°C° 0.1 mm 3 mps 740 mmHg 45%
    14:00 +31°C° 0.1 mm 3 mps 740 mmHg 46%
    15:00 +31°C° 0.1 mm 3 mps 739 mmHg 48%
    16:00 +28°C° 0.6 mm 3 mps 739 mmHg 59%
    17:00 +26°C° 0.6 mm 3 mps 739 mmHg 70%
    18:00 +22°C° 0.6 mm 3 mps 739 mmHg 81%
    19:00 +20°C° 1.1 mm 2 mps 739 mmHg 86%
    20:00 +19°C° 1.1 mm 1 mps 740 mmHg 90%
    21:00 +15°C° 1.1 mm 0 mps 740 mmHg 94%
    22:00 +16°C° 0.6 mm 1 mps 740 mmHg 95%
    23:00 +16°C° 0.6 mm 1 mps 740 mmHg 95%

    2 June, Tuesday

    Time Temperature Precipitation Wind Pressure Humidity
    00:00 +16°C° 0.6 mm 1 mps 740 mmHg 95%
    01:00 +15°C° 0.2 mm 1 mps 740 mmHg 94%
    02:00 +15°C° 0.2 mm 2 mps 739 mmHg 93%
    03:00 +15°C° 0.2 mm 2 mps 739 mmHg 92%
    04:00 +16°C° 0 mm 2 mps 739 mmHg 91%
    05:00 +16°C° 0 mm 2 mps 739 mmHg 90%
    06:00 +18°C° 0 mm 1 mps 739 mmHg 88%
    07:00 +20°C° 0 mm 1 mps 738 mmHg 79%
    08:00 +23°C° 0 mm 1 mps 738 mmHg 70%
    09:00 +25°C° 0 mm 1 mps 738 mmHg 61%
    10:00 +26°C° 0 mm 2 mps 738 mmHg 59%
    11:00 +28°C° 0 mm 3 mps 738 mmHg 56%
    12:00 +29°C° 0 mm 4 mps 738 mmHg 54%
    13:00 +28°C° 0 mm 4 mps 738 mmHg 57%
    14:00 +28°C° 0 mm 4 mps 738 mmHg 60%
    15:00 +27°C° 0 mm 5 mps 738 mmHg 63%
    16:00 +26°C° 0.2 mm 4 mps 738 mmHg 68%
    17:00 +24°C° 0.2 mm 3 mps 738 mmHg 72%
    18:00 +22°C° 0.2 mm 3 mps 738 mmHg 77%
    19:00 +20°C° 0.1 mm 2 mps 739 mmHg 82%
    20:00 +20°C° 0.1 mm 1 mps 739 mmHg 87%
    21:00 +18°C° 0.1 mm 1 mps 739 mmHg 91%
    22:00 +18°C° 0 mm 1 mps 739 mmHg 90%
    23:00 +17°C° 0 mm 2 mps 739 mmHg 88%

    3 June, Wednesday

    Time Temperature Precipitation Wind Pressure Humidity
    00:00 +17°C° 0 mm 2 mps 739 mmHg 87%
    01:00 +17°C° 0 mm 2 mps 739 mmHg 83%
    02:00 +17°C° 0 mm 3 mps 739 mmHg 80%
    03:00 +17°C° 0 mm 3 mps 739 mmHg 77%
    04:00 +18°C° 0 mm 3 mps 738 mmHg 75%
    05:00 +19°C° 0 mm 3 mps 738 mmHg 72%
    06:00 +19°C° 0 mm 3 mps 738 mmHg 70%
    07:00 +22°C° 0 mm 3 mps 738 mmHg 63%
    08:00 +26°C° 0 mm 2 mps 738 mmHg 56%
    09:00 +29°C° 0 mm 2 mps 738 mmHg 49%
    10:00 +29°C° 0 mm 2 mps 738 mmHg 51%
    11:00 +28°C° 0 mm 2 mps 738 mmHg 52%
    12:00 +28°C° 0 mm 3 mps 739 mmHg 54%
    13:00 +29°C° 0 mm 2 mps 739 mmHg 50%
    14:00 +30°C° 0 mm 2 mps 739 mmHg 46%
    15:00 +31°C° 0 mm 1 mps 739 mmHg 42%
    16:00 +29°C° 0.1 mm 2 mps 739 mmHg 50%
    17:00 +27°C° 0.1 mm 3 mps 739 mmHg 58%
    18:00 +25°C° 0.1 mm 3 mps 739 mmHg 66%
    19:00 +22°C° 0.6 mm 3 mps 739 mmHg 74%
    20:00 +20°C° 0.6 mm 2 mps 739 mmHg 82%
    21:00 +18°C° 0.6 mm 1 mps 740 mmHg 91%
    22:00 +18°C° 0.7 mm 1 mps 740 mmHg 92%
    23:00 +16°C° 0.7 mm 1 mps 740 mmHg 93%

    4 June, Thursday

    Time Temperature Precipitation Wind Pressure Humidity
    00:00 +15°C° 0.7 mm 0 mps 740 mmHg 95%
    01:00 +16°C° 0.9 mm 1 mps 740 mmHg 95%
    02:00 +16°C° 0.9 mm 1 mps 740 mmHg 95%
    03:00 +16°C° 0.9 mm 1 mps 740 mmHg 95%
    04:00 +18°C° 0.2 mm 1 mps 740 mmHg 94%
    05:00 +18°C° 0.2 mm 1 mps 740 mmHg 94%
    06:00 +18°C° 0.2 mm 1 mps 740 mmHg 93%
    07:00 +19°C° 0.2 mm 1 mps 740 mmHg 90%
    08:00 +20°C° 0.2 mm 1 mps 740 mmHg 87%
    09:00 +20°C° 0.2 mm 2 mps 741 mmHg 84%
    10:00 +23°C° 0 mm 2 mps 741 mmHg 79%
    11:00 +24°C° 0 mm 2 mps 741 mmHg 73%
    12:00 +25°C° 0 mm 2 mps 741 mmHg 67%
    13:00 +26°C° 0.1 mm 3 mps 741 mmHg 67%
    14:00 +26°C° 0.1 mm 3 mps 741 mmHg 66%
    15:00 +26°C° 0.1 mm 3 mps 741 mmHg 66%
    16:00 +26°C° 0.1 mm 3 mps 742 mmHg 69%
    17:00 +25°C° 0.1 mm 3 mps 742 mmHg 73%
    18:00 +24°C° 0.1 mm 3 mps 742 mmHg 76%
    19:00 +23°C° 0 mm 2 mps 742 mmHg 82%
    20:00 +21°C° 0 mm 1 mps 743 mmHg 88%
    21:00 +19°C° 0 mm 1 mps 743 mmHg 94%
    22:00 +19°C° 0 mm 1 mps 743 mmHg 93%
    23:00 +18°C° 0 mm 1 mps 743 mmHg 93%
    Show more